Logan County (6L4)

 

Airport Diagram
No Airport Diagram Available
Current Weather/Forecast (IFR Conditions)
METAR K6L4 071255Z AUTO 09005G13KT 3SM -RA BKN009 BKN013 BKN026 08/08 A2996 RMK AO2
TAF

Airport Information

All Charts
General
Chart Name View
TAKEOFF MINIMUMS
ALTERNATE MINIMUMS

Approaches
Chart Name Download
RNAV (GPS) RWY 06
RNAV (GPS) RWY 24


Airport Statistics
Departures Arrivals Local
All Collected Stats since June 2016: 1 2 0
2021 Stats: 0 0 0
May Stats: 0 0 0

Inbound Traffic (Arrivals) - 0

No inbound traffic.


Outbound Traffic (Departures) - 0

No outbound traffic.


Local Traffic (Pattern) - 0

No local traffic.